Location: Fazenda Monte Alegre
(4.8500°S, 38.0333°W)
Time: 16:45:56
(UTC+00:00)

Centaur AC-146 - Pass Details

Date: 24 September 2020
Orbit: 314 x 37636 km, 19.1° (Epoch: 24 October)

Event Time Altitude Azimuth Distance (km) Brightness Sun altitude
Rises 12:01:15 0° 295° (WNW) 11,455 8.2 54.1°
Reaches altitude 10° 12:07:59 10° 297° (WNW) 12,292 8.4 55.8°
Maximum altitude 14:03:07 48° 302° (WNW) 29,518 11.3 83.4°
Drops below altitude 10° 19:47:51 10° 271° (W) 34,704 15.5 9.1°
Enters shadow 22:29:46 32° 163° (SSE) 1,997 4.4 -31.3°
